User: anonymous   Login
Location: Unspecified
(0.0000°N, 0.0000°E)
Time: 23:39:16
(UTC+02:00)
Language:

Cosmos 1953 Rocket - Orbit

View from above orbital plane
View from above orbital plane
View from above satellite
View from above satellite

Ground track
Ground track

The orbit data is extracted from the following two-line orbital elements,

1 19211U 88050B   17235.21948716  .00000090  00000-0  81712-5 0  9994
2 19211  82.5282 139.7392 0020337 255.8079 217.1147 14.82970746576726
Epoch (UTC): 23 August 2017 05:16:03
Eccentricity: 0.0020337
inclination: 82.5282°
perigee height: 606 km
apogee height: 634 km
right ascension of ascending node: 139.7392°
argument of perigee: 255.8079°
revolutions per day: 14.82970746
mean anomaly at epoch: 217.1147°
orbit number at epoch: 57672

The dashed part of the orbit path shows where the satellite is in the earth's shadow,  

DLR